Location: Doschendorf
(50.0069°N, 11.0602°E)
Time: 22:14:58
(UTC+00:00)

USA 116 - Pass Details

Date: 17 November 2019
Orbit: 405 x 834 km, 97.9° (Epoch: 18 November)

Event Time Altitude Azimuth Distance (km) Brightness Sun altitude
Exits shadow 17:23:10 24° 37° (NE) 1,416 5.4 -18.0°
Maximum altitude 17:25:43 47° 100° (E) 946 4.4 -18.4°
Drops below altitude 10° 17:30:36 10° 174° (S) 2,290 6.9 -19.2°
Sets 17:33:05 0° 180° (S) 3,249 7.7 -19.6°
